Location: Cazarilh
(42.9578°N, 0.5819°E)
Time: 22:33:32
(UTC+00:00)

Cosmos 1420 Rocket - Pass Details

Date: 11 December 2019
Orbit: 754 x 781 km, 74.0° (Epoch: 22 January)

Event Time Altitude Azimuth Distance (km) Brightness Sun altitude
Exits shadow 05:22:39 - 215° (SW) 2,460 6.4 -20.4°
Reaches altitude 10° 05:23:07 10° 217° (SW) 2,284 6.2 -20.3°
Maximum altitude 05:28:11 53° 294° (WNW) 923 4.0 -19.4°
Drops below altitude 10° 05:33:16 10° 12° (NNE) 2,290 6.4 -18.5°
Sets 05:35:42 0° 17° (NNE) 3,218 7.3 -18.1°
